| time (UTC) | temp F | wind direction | speed MPH | gust MPH | rain 1hr in | rain 24hr in | rain mn in | humidity % | barometer mb |
| 20260503031530 | 48 | 163 | 0.0 | 0.0 | 0.00 | 0.00 | 0.00 | 89 | 1009.2 |
| 20260503030034 | 48 | 163 | 0.0 | 0.0 | 0.00 | 0.00 | 0.00 | 89 | 1009.4 |
| 20260503024528 | 48 | 163 | 0.0 | 0.0 | 0.00 | 0.00 | 0.00 | 89 | 1009.3 |
| 20260503023028 | 48 | 163 | 0.0 | 0.0 | 0.00 | 0.00 | 0.00 | 89 | 1009.6 |
| 20260503021527 | 48 | 163 | 0.0 | 0.0 | 0.00 | 0.00 | 0.00 | 89 | 1009.6 |
| 20260503020027 | 48 | 163 | 0.0 | 0.0 | 0.00 | 0.00 | 0.00 | 89 | 1009.7 |
| 20260503014526 | 48 | 163 | 0.0 | 0.0 | 0.00 | 0.00 | 0.00 | 88 | 1009.9 |
| 20260503013035 | 49 | 163 | 0.0 | 3.0 | 0.00 | 0.00 | 0.00 | 88 | 1009.9 |
| 20260503011525 | 49 | 177 | 0.0 | 2.0 | 0.00 | 0.00 | 0.00 | 87 | 1010.0 |
| 20260503010024 | 49 | 177 | 0.0 | 3.0 | 0.00 | 0.00 | 0.00 | 87 | 1009.7 |
| 20260503004533 | 49 | 178 | 1.0 | 3.0 | 0.00 | 0.00 | 0.00 | 87 | 1009.8 |
| 20260503003029 | 49 | 178 | 0.0 | 2.0 | 0.00 | 0.00 | 0.00 | 87 | 1009.8 |
| 20260503001524 | 49 | 178 | 0.0 | 1.0 | 0.00 | 0.00 | 0.00 | 86 | 1009.9 |
| 20260503000026 | 49 | 178 | 0.0 | 1.0 | 0.00 | 0.00 | 0.00 | 86 | 1009.8 |
| 20260502234535 | 49 | 178 | 1.0 | 3.0 | 0.00 | 0.00 | 0.00 | 86 | 1009.7 |
| 20260502233031 | 49 | 178 | 0.0 | 2.0 | 0.00 | 0.00 | 0.00 | 86 | 1009.8 |
| 20260502231521 | 49 | 188 | 0.0 | 3.0 | 0.00 | 0.00 | 0.00 | 85 | 1009.7 |
| 20260502230025 | 50 | 194 | 0.0 | 3.0 | 0.00 | 0.00 | 0.00 | 84 | 1009.9 |
| 20260502224519 | 50 | 203 | 1.0 | 3.0 | 0.00 | 0.00 | 0.00 | 84 | 1009.9 |
| 20260502223029 | 50 | 219 | 0.0 | 2.0 | 0.00 | 0.00 | 0.00 | 82 | 1009.8 |
| 20260502221518 | 51 | 177 | 0.0 | 0.0 | 0.00 | 0.00 | 0.00 | 80 | 1009.6 |
| 20260502220022 | 51 | 176 | 0.0 | 3.0 | 0.00 | 0.00 | 0.00 | 79 | 1009.6 |
| 20260502214516 | 51 | 139 | 2.0 | 7.0 | 0.00 | 0.00 | 0.00 | 80 | 1009.3 |
| 20260502213015 | 51 | 138 | 5.0 | 8.0 | 0.00 | 0.00 | 0.00 | 80 | 1009.5 |
| 20260502211514 | 51 | 147 | 2.0 | 8.0 | 0.00 | 0.00 | 0.00 | 80 | 1009.6 |
| 20260502210013 | 51 | 145 | 2.0 | 4.0 | 0.00 | 0.00 | 0.00 | 81 | 1009.7 |
| 20260502204514 | 51 | 187 | 0.0 | 3.0 | 0.00 | 0.00 | 0.00 | 81 | 1009.8 |
| 20260502203011 | 51 | 163 | 1.0 | 6.0 | 0.00 | 0.00 | 0.00 | 81 | 1009.8 |
| 20260502201510 | 51 | 154 | 2.0 | 6.0 | 0.00 | 0.00 | 0.00 | 80 | 1010.0 |
| 20260502200009 | 52 | 153 | 2.0 | 8.0 | 0.00 | 0.00 | 0.00 | 78 | 1010.2 |
| 20260502194519 | 52 | 190 | 2.0 | 9.0 | 0.00 | 0.00 | 0.00 | 77 | 1010.3 |
| 20260502193007 | 53 | 178 | 4.0 | 8.0 | 0.00 | 0.00 | 0.00 | 77 | 1010.3 |
| 20260502191504 | 53 | 186 | 4.0 | 8.0 | 0.00 | 0.00 | 0.00 | 77 | 1010.5 |
| 20260502190003 | 53 | 260 | 2.0 | 8.0 | 0.00 | 0.00 | 0.00 | 77 | 1010.6 |
| 20260502184607 | 53 | 189 | 4.0 | 8.0 | 0.00 | 0.00 | 0.00 | 76 | 1010.7 |
| 20260502183101 | 52 | 210 | 2.0 | 10.0 | 0.00 | 0.00 | 0.00 | 76 | 1011.0 |
| 20260502181559 | 52 | 146 | 4.0 | 11.0 | 0.00 | 0.00 | 0.00 | 74 | 1011.0 |
| 20260502163101 | 56 | 215 | 3.0 | 11.0 | 0.00 | 0.00 | 0.00 | 70 | 1010.8 |
| 20260502161555 | 55 | 193 | 3.0 | 9.0 | 0.00 | 0.00 | 0.00 | 72 | 1010.9 |
| 20260502160156 | 56 | 173 | 2.0 | 7.0 | 0.00 | 0.00 | 0.00 | 74 | 1011.1 |
| 20260502151611 | 57 | 205 | 2.0 | 4.0 | 0.00 | 0.00 | 0.00 | 73 | 1011.5 |
| 20260502123048 | 51 | 168 | 2.0 | 7.0 | 0.00 | 0.00 | 0.00 | 78 | 1012.1 |
| 20260502121539 | 52 | 188 | 3.0 | 9.0 | 0.00 | 0.00 | 0.00 | 77 | 1012.1 |
| 20260502114534 | 50 | 218 | 3.0 | 7.0 | 0.00 | 0.00 | 0.00 | 79 | 1011.8 |
| 20260502113032 | 50 | 209 | 2.0 | 6.0 | 0.00 | 0.00 | 0.00 | 78 | 1011.6 |
| 20260502111532 | 49 | 155 | 2.0 | 8.0 | 0.00 | 0.00 | 0.00 | 79 | 1011.5 |
| 20260502110030 | 49 | 212 | 1.0 | 7.0 | 0.00 | 0.00 | 0.00 | 79 | 1011.8 |
| 20260502104532 | 49 | 146 | 1.0 | 3.0 | 0.00 | 0.00 | 0.00 | 79 | 1011.7 |
| 20260502103027 | 48 | 172 | 0.0 | 3.0 | 0.00 | 0.00 | 0.00 | 79 | 1011.2 |
| 20260502101527 | 48 | 202 | 1.0 | 4.0 | 0.00 | 0.00 | 0.00 | 79 | 1011.3 |
| 20260502091524 | 47 | 173 | 0.0 | 4.0 | 0.00 | 0.00 | 0.00 | 77 | 1011.3 |
| 20260502071515 | 48 | 160 | 0.0 | 1.0 | 0.00 | 0.00 | 0.00 | 74 | 1011.1 |
| 20260502070013 | 48 | 161 | 0.0 | 3.0 | 0.00 | 0.00 | 0.00 | 74 | 1011.0 |
| 20260502064512 | 49 | 204 | 2.0 | 5.0 | 0.00 | 0.00 | 0.00 | 73 | 1011.0 |
| 20260502063010 | 49 | 194 | 1.0 | 5.0 | 0.00 | 0.00 | 0.00 | 73 | 1011.2 |
| 20260502061512 | 49 | 209 | 0.0 | 4.0 | 0.00 | 0.00 | 0.00 | 74 | 1011.1 |
| 20260502060007 | 49 | 188 | 0.0 | 4.0 | 0.00 | 0.00 | 0.00 | 74 | 1011.2 |
| 20260502054505 | 48 | 219 | 1.0 | 3.0 | 0.00 | 0.00 | 0.00 | 75 | 1011.5 |
| 20260502053004 | 47 | 212 | 0.0 | 2.0 | 0.00 | 0.00 | 0.00 | 76 | 1011.4 |
| 20260502051508 | 47 | 215 | 0.0 | 0.0 | 0.00 | 0.00 | 0.00 | 76 | 1011.3 |
| 20260502050100 | 48 | 215 | 0.0 | 2.0 | 0.00 | 0.00 | 0.00 | 76 | 1011.5 |
| 20260502050002 | 48 | 215 | 0.0 | 2.0 | 0.00 | 0.00 | 0.00 | 76 | 1011.4 |
| 20260502044559 | 48 | 215 | 0.0 | 1.0 | 0.00 | 0.00 | 0.00 | 76 | 1011.5 |
| 20260502043102 | 48 | 215 | 0.0 | 2.0 | 0.00 | 0.00 | 0.00 | 76 | 1011.6 |
| 20260502041602 | 48 | 217 | 0.0 | 2.0 | 0.00 | 0.00 | 0.00 | 75 | 1011.6 |
| 20260502040058 | 49 | 222 | 0.0 | 3.0 | 0.00 | 0.00 | 0.00 | 74 | 1011.6 |
| 20260502034553 | 49 | 232 | 0.0 | 2.0 | 0.00 | 0.00 | 0.00 | 74 | 1011.5 |
| 20260502033052 | 49 | 213 | 0.0 | 1.0 | 0.00 | 0.00 | 0.00 | 73 | 1011.5 |